HK4RAU-31 Weather Reports


time (UTC)temp
C
wind
direction
speed
KPH
gust
KPH
rain 1hr
cm
rain 24hr
cm
rain mn
cm
humidity
%
barometer
mb
20260507125306 13 50 6.4 0.0 0.00 0.00 0.00 94 1019.0
20260507124956 13 50 6.4 0.0 0.00 0.00 0.00 94 1019.0
20260507124655 9 118 1.6 6.4 0.00 0.00 0.00 97 1020.0
20260507124354 9 118 1.6 6.4 0.00 0.00 0.00 97 1020.0
20260507124042 11 50 6.4 0.0 0.00 0.00 0.00 97 1020.0
20260507123741 9 118 1.6 6.4 0.00 0.00 0.00 97 1020.0
20260507123129 9 111 3.2 6.4 0.00 0.00 0.00 97 1020.0
20260507122823 9 111 3.2 6.4 0.00 0.00 0.00 97 1020.0
20260507122516 9 111 3.2 6.4 0.00 0.00 0.00 97 1020.0
20260507122215 9 111 3.2 6.4 0.00 0.00 0.00 97 1020.0
20260507121603 9 111 3.2 6.4 0.00 0.00 0.00 97 1020.0
20260507120933 9 111 3.2 6.4 0.00 0.00 0.00 97 1020.0
20260507120627 9 111 3.2 6.4 0.00 0.00 0.00 97 1020.0
20260507120320 9 0 4.8 0.0 0.00 0.00 0.00 97 1020.0
20260507120020 9 0 4.8 0.0 0.00 0.00 0.00 97 1020.0
20260507115711 9 0 4.8 0.0 0.00 0.00 0.00 97 1020.0
20260507115404 9 0 4.8 0.0 0.00 0.00 0.00 97 1020.0
20260507114735 9 0 4.8 0.0 0.00 0.00 0.00 97 1020.0
20260507114427 9 0 4.8 0.0 0.00 0.00 0.00 97 1020.0
20260507114115 9 0 4.8 0.0 0.00 0.00 0.00 97 1020.0
20260507113813 9 0 4.8 0.0 0.00 0.00 0.00 97 1020.0
20260507113506 9 0 4.8 0.0 0.00 0.00 0.00 97 1020.0
20260507113154 9 0 4.8 0.0 0.00 0.00 0.00 97 1020.0
20260507112853 9 0 4.8 0.0 0.00 0.00 0.00 97 1020.0
20260507112546 9 0 4.8 0.0 0.00 0.00 0.00 97 1020.0
20260507112244 9 70 6.4 0.0 0.00 0.00 0.00 96 1020.0
20260507111938 9 70 6.4 0.0 0.00 0.00 0.00 96 1020.0
20260507111626 9 70 6.4 0.0 0.00 0.00 0.00 96 1020.0
20260507111325 9 70 6.4 0.0 0.00 0.00 0.00 96 1020.0
20260507111017 9 70 6.4 0.0 0.00 0.00 0.00 96 1020.0
20260507110642 9 70 6.4 0.0 0.00 0.00 0.00 95 1020.0
20260507110339 9 70 6.4 0.0 0.00 0.00 0.00 95 1020.0
20260507110028 9 70 6.4 0.0 0.00 0.00 0.00 95 1020.0
20260507105720 9 70 6.4 0.0 0.00 0.00 0.00 95 1020.0
20260507105414 9 70 6.4 0.0 0.00 0.00 0.00 95 1020.0
20260507105108 9 70 6.4 0.0 0.00 0.00 0.00 95 1020.0
20260507104454 9 70 6.4 0.0 0.00 0.00 0.00 94 1020.0
20260507104148 9 70 6.4 0.0 0.00 0.00 0.00 94 1020.0
20260507103841 9 70 6.4 0.0 0.00 0.00 0.00 94 1020.0
20260507103535 9 70 6.4 0.0 0.00 0.00 0.00 94 1020.0
20260507103228 9 80 4.8 0.0 0.00 0.00 0.00 93 1020.0
20260507102927 9 80 4.8 0.0 0.00 0.00 0.00 93 1020.0
20260507102621 9 80 4.8 0.0 0.00 0.00 0.00 93 1020.0
20260507102314 9 80 4.8 0.0 0.00 0.00 0.00 93 1020.0
20260507102007 9 80 4.8 0.0 0.00 0.00 0.00 92 1020.0
20260507101701 9 102 4.8 4.8 0.00 0.00 0.00 91 1020.0
20260507101354 9 102 4.8 4.8 0.00 0.00 0.00 91 1020.0
20260507101053 9 80 4.8 0.0 0.00 0.00 0.00 92 1020.0
20260507100751 9 102 4.8 4.8 0.00 0.00 0.00 91 1020.0
20260507100445 9 102 4.8 4.8 0.00 0.00 0.00 91 1020.0
20260507100133 9 102 4.8 4.8 0.00 0.00 0.00 91 1020.0
20260507095824 9 102 4.8 4.8 0.00 0.00 0.00 91 1020.0
20260507095216 9 102 4.8 4.8 0.00 0.00 0.00 91 1020.0
20260507094859 9 102 4.8 4.8 0.00 0.00 0.00 91 1020.0
20260507094548 9 102 4.8 4.8 0.00 0.00 0.00 91 1020.0
20260507094241 9 102 4.8 4.8 0.00 0.00 0.00 91 1020.0
20260507093934 9 102 4.8 4.8 0.00 0.00 0.00 91 1020.0
20260507093622 9 102 4.8 4.8 0.00 0.00 0.00 91 1020.0
20260507093310 9 102 4.8 4.8 0.00 0.00 0.00 91 1020.0
20260507093004 9 98 4.8 4.8 0.00 0.00 0.00 91 1020.0
20260507092702 9 98 4.8 4.8 0.00 0.00 0.00 91 1020.0
20260507092401 10 98 4.8 4.8 0.00 0.00 0.00 91 1020.0
20260507092054 10 98 4.8 4.8 0.00 0.00 0.00 91 1020.0
20260507091748 10 98 4.8 4.8 0.00 0.00 0.00 91 1020.0
20260507091442 10 98 4.8 4.8 0.00 0.00 0.00 91 1020.0
20260507091140 11 0 4.8 0.0 0.00 0.00 0.00 94 1020.0
20260507090834 10 350 4.8 0.0 0.00 0.00 0.00 93 1020.0
20260507090528 10 350 4.8 0.0 0.00 0.00 0.00 93 1020.0
20260507090221 10 350 4.8 0.0 0.00 0.00 0.00 93 1020.0
20260507085915 10 350 4.8 0.0 0.00 0.00 0.00 91 1020.0
20260507085608 10 350 4.8 0.0 0.00 0.00 0.00 91 1020.0
20260507085301 10 350 4.8 0.0 0.00 0.00 0.00 91 1020.0
20260507084955 10 350 4.8 0.0 0.00 0.00 0.00 91 1020.0
20260507084648 10 350 4.8 0.0 0.00 0.00 0.00 91 1020.0
20260507084337 10 350 4.8 0.0 0.00 0.00 0.00 91 1020.0
20260507084030 10 350 4.8 0.0 0.00 0.00 0.00 91 1020.0
20260507083724 10 350 4.8 0.0 0.00 0.00 0.00 91 1020.0
20260507083417 10 350 4.8 0.0 0.00 0.00 0.00 91 1020.0
20260507082756 10 350 4.8 0.0 0.00 0.00 0.00 91 1020.0
20260507082449 10 350 4.8 0.0 0.00 0.00 0.00 91 1020.0
20260507082141 10 350 4.8 0.0 0.00 0.00 0.00 91 1020.0
20260507081835 10 350 4.8 0.0 0.00 0.00 0.00 91 1020.0
20260507081527 10 350 4.8 0.0 0.00 0.00 0.00 91 1020.0
20260507080913 10 0 3.2 0.0 0.00 0.00 0.00 91 1020.0
20260507080610 10 350 4.8 0.0 0.00 0.00 0.00 91 1020.0
20260507080303 10 0 3.2 0.0 0.00 0.00 0.00 91 1020.0
20260507075957 10 0 3.2 0.0 0.00 0.00 0.00 91 1020.0
20260507075650 10 0 3.2 0.0 0.00 0.00 0.00 91 1020.0
20260507075344 10 0 3.2 0.0 0.00 0.00 0.00 91 1020.0
20260507075038 10 0 3.2 0.0 0.00 0.00 0.00 91 1020.0
20260507074731 10 0 3.2 0.0 0.00 0.00 0.00 91 1020.0
20260507074424 10 0 3.2 0.0 0.00 0.00 0.00 91 1020.0
20260507074123 10 0 3.2 0.0 0.00 0.00 0.00 91 1020.0
20260507073816 10 0 3.2 0.0 0.00 0.00 0.00 91 1020.0
20260507073510 10 0 3.2 0.0 0.00 0.00 0.00 91 1020.0
20260507073204 10 0 3.2 0.0 0.00 0.00 0.00 91 1020.0
20260507072857 10 0 3.2 0.0 0.00 0.00 0.00 91 1020.0
20260507072556 10 0 3.2 0.0 0.00 0.00 0.00 91 1020.0
20260507072249 10 0 3.2 0.0 0.00 0.00 0.00 91 1020.0
20260507071943 10 0 3.2 0.0 0.00 0.00 0.00 91 1020.0
20260507071642 10 0 3.2 0.0 0.00 0.00 0.00 91 1020.0
20260507071335 10 0 3.2 0.0 0.00 0.00 0.00 91 1020.0
20260507071029 10 0 3.2 0.0 0.00 0.00 0.00 91 1020.0
20260507070722 10 0 3.2 0.0 0.00 0.00 0.00 91 1020.0
20260507070416 10 60 6.4 0.0 0.00 0.00 0.00 91 1020.0
20260507070109 10 60 6.4 0.0 0.00 0.00 0.00 91 1020.0
20260507065803 10 60 6.4 0.0 0.00 0.00 0.00 91 1020.0
20260507065456 10 60 6.4 0.0 0.00 0.00 0.00 91 1020.0
20260507065154 10 60 6.4 0.0 0.00 0.00 0.00 91 1020.0
20260507064847 11 60 6.4 0.0 0.00 0.00 0.00 89 1021.0
20260507064541 11 60 6.4 0.0 0.00 0.00 0.00 89 1021.0
20260507064233 11 60 6.4 0.0 0.00 0.00 0.00 89 1021.0
20260507063921 11 60 6.4 0.0 0.00 0.00 0.00 89 1021.0
20260507063619 11 60 6.4 0.0 0.00 0.00 0.00 89 1021.0
20260507063313 11 60 6.4 0.0 0.00 0.00 0.00 89 1021.0
20260507063006 11 60 6.4 0.0 0.00 0.00 0.00 89 1021.0
20260507062700 11 60 6.4 0.0 0.00 0.00 0.00 89 1021.0
20260507062359 11 60 6.4 0.0 0.00 0.00 0.00 89 1021.0
20260507062057 11 60 6.4 0.0 0.00 0.00 0.00 88 1021.0
20260507061751 11 60 6.4 0.0 0.00 0.00 0.00 88 1021.0
20260507061449 11 60 6.4 0.0 0.00 0.00 0.00 88 1021.0
20260507061143 11 60 6.4 0.0 0.00 0.00 0.00 88 1021.0
20260507060836 10 40 3.2 0.0 0.00 0.00 0.00 87 1021.0
20260507060530 10 40 3.2 0.0 0.00 0.00 0.00 87 1021.0
20260507060223 10 40 3.2 0.0 0.00 0.00 0.00 87 1021.0
20260507055916 10 40 3.2 0.0 0.00 0.00 0.00 87 1021.0
20260507055614 10 40 3.2 0.0 0.00 0.00 0.00 87 1021.0
20260507055308 10 40 3.2 0.0 0.00 0.00 0.00 87 1021.0
20260507055006 10 40 3.2 0.0 0.00 0.00 0.00 86 1021.0
20260507054653 10 40 3.2 0.0 0.00 0.00 0.00 86 1021.0
20260507054025 10 40 3.2 0.0 0.00 0.00 0.00 86 1021.0
20260507053714 10 40 3.2 0.0 0.00 0.00 0.00 86 1022.0
20260507053413 10 40 3.2 0.0 0.00 0.00 0.00 86 1022.0
20260507053103 10 40 3.2 0.0 0.00 0.00 0.00 86 1022.0
20260507052757 10 40 3.2 0.0 0.00 0.00 0.00 86 1022.0
20260507052446 10 40 3.2 0.0 0.00 0.00 0.00 86 1022.0
20260507052143 10 40 3.2 0.0 0.00 0.00 0.00 86 1022.0
20260507051842 10 40 3.2 0.0 0.00 0.00 0.00 86 1022.0
20260507050504 10 20 4.8 0.0 0.00 0.00 0.00 84 1022.0
20260507045446 10 20 4.8 0.0 0.00 0.00 0.00 83 1022.0
20260507045133 10 20 4.8 0.0 0.00 0.00 0.00 83 1022.0
20260507044524 10 20 4.8 0.0 0.00 0.00 0.00 81 1022.0
20260507044218 10 20 4.8 0.0 0.00 0.00 0.00 81 1022.0
20260507043915 10 20 4.8 0.0 0.00 0.00 0.00 81 1022.0
20260507043609 10 20 4.8 0.0 0.00 0.00 0.00 81 1022.0
20260507043302 11 20 4.8 0.0 0.00 0.00 0.00 78 1022.0
20260507043001 11 20 4.8 0.0 0.00 0.00 0.00 78 1022.0
20260507042658 11 20 4.8 0.0 0.00 0.00 0.00 78 1022.0
20260507042352 11 20 4.8 0.0 0.00 0.00 0.00 78 1022.0
20260507042046 11 20 4.8 0.0 0.00 0.00 0.00 78 1022.0
20260507041739 11 20 4.8 0.0 0.00 0.00 0.00 75 1022.0
20260507041428 11 20 4.8 0.0 0.00 0.00 0.00 75 1022.0
20260507041121 11 20 4.8 0.0 0.00 0.00 0.00 74 1022.0
20260507040820 11 70 6.4 0.0 0.00 0.00 0.00 71 1022.0
20260507040518 11 20 4.8 0.0 0.00 0.00 0.00 74 1022.0
20260507040207 11 70 6.4 0.0 0.00 0.00 0.00 71 1022.0
20260507035900 11 70 6.4 0.0 0.00 0.00 0.00 71 1022.0
20260507035544 11 70 6.4 0.0 0.00 0.00 0.00 71 1022.0
20260507035237 11 70 6.4 0.0 0.00 0.00 0.00 71 1022.0
20260507034931 11 70 6.4 0.0 0.00 0.00 0.00 71 1022.0
20260507034629 11 70 6.4 0.0 0.00 0.00 0.00 71 1022.0
20260507034323 11 70 6.4 0.0 0.00 0.00 0.00 71 1022.0
20260507034021 11 70 6.4 0.0 0.00 0.00 0.00 71 1022.0
20260507033714 11 70 6.4 0.0 0.00 0.00 0.00 71 1022.0
20260507033407 11 70 6.4 0.0 0.00 0.00 0.00 71 1022.0
20260507033101 11 70 6.4 0.0 0.00 0.00 0.00 71 1022.0
20260507032759 11 70 6.4 0.0 0.00 0.00 0.00 71 1022.0
20260507032458 12 70 6.4 0.0 0.00 0.00 0.00 71 1022.0
20260507032156 12 70 6.4 0.0 0.00 0.00 0.00 71 1022.0
20260507031850 12 70 6.4 0.0 0.00 0.00 0.00 71 1022.0
20260507031543 12 70 6.4 0.0 0.00 0.00 0.00 71 1022.0
20260507031241 14 110 6.4 0.0 0.00 0.00 0.00 58 1022.0
20260507030934 12 70 6.4 0.0 0.00 0.00 0.00 71 1022.0
20260507030633 14 110 6.4 0.0 0.00 0.00 0.00 58 1022.0
20260507030331 14 110 6.4 0.0 0.00 0.00 0.00 58 1022.0
20260507030030 14 110 6.4 0.0 0.00 0.00 0.00 58 1022.0
20260507025723 14 110 6.4 0.0 0.00 0.00 0.00 58 1022.0
20260507025417 14 110 6.4 0.0 0.00 0.00 0.00 58 1022.0
20260507025110 14 110 6.4 0.0 0.00 0.00 0.00 58 1022.0
20260507024804 14 110 6.4 0.0 0.00 0.00 0.00 58 1022.0
20260507024457 14 110 6.4 0.0 0.00 0.00 0.00 58 1022.0
20260507024156 14 110 6.4 0.0 0.00 0.00 0.00 58 1022.0
20260507023850 14 110 6.4 0.0 0.00 0.00 0.00 58 1022.0
20260507023548 14 110 6.4 0.0 0.00 0.00 0.00 58 1021.0
20260507023247 14 110 6.4 0.0 0.00 0.00 0.00 58 1021.0
20260507022940 14 110 6.4 0.0 0.00 0.00 0.00 58 1021.0
20260507022638 14 110 6.4 0.0 0.00 0.00 0.00 58 1021.0